Weather History for Blair, NE

Change the Weather History Date:

Thursday, March 27, 2014

  Actual Average (KOMA) Record (KOMA)
Temperature  
Mean Temperature 42 °F 44 °F  
Max Temperature 51 °F 56 °F 83 °F (1895)
Min Temperature 33 °F 32 °F 11 °F (1955)
Degree Days  
Heating Degree Days 23 21  
Month to date heating degree days 711  
Since 1 July heating degree days 5509  
Cooling Degree Days 0 0  
Month to date cooling degree days 0  
Year to date cooling degree days 0  
Moisture  
Dew Point 38 °F    
Average Humidity 90    
Maximum Humidity 95    
Minimum Humidity 83    
Precipitation  
Precipitation 0.08 in 0.08 in 2.44 in (2004)
Month to date precipitation 1.65  
Year to date precipitation 3.22  
Snow  
Snow 0.00 in 0.10 in - ()
Month to date snowfall 3.8  
Since 1 July snowfall 25.0  
Snow Depth -    
Sea Level Pressure  
Sea Level Pressure 29.48 in    
Wind  
Wind Speed 18 mph (SW)    
Max Wind Speed 24 mph    
Max Gust Speed 36 mph    
Visibility 5 miles    
Events Rain , Snow , Thunderstorm    
T = Trace of Precipitation, MM = Missing Value Source: NWS Daily Summary

Daily Weather History Graph

Daily Weather History Graph

Search for Another Location

Airport:

Trip Planner

Search our weather history database for the weather conditions in past years. The results will help you decide how hot, cold, wet, or windy it might be!

Date:

Astronomy

Mar. 27, 2014 Rise Set
Actual Time 7:15 AM CDT 7:44 PM CDT
Civil Twilight 6:48 AM CDT 8:12 PM CDT
Nautical Twilight 6:15 AM CDT 8:44 PM CDT
Astronomical Twilight 5:41 AM CDT 9:18 PM CDT
Moon 5:10 AM CDT (3/27) 4:31 PM CDT (3/27)
Length of Visible Light 13h 23m
Length of Day
12h 28m
Waning Crescent, 13% of the Moon is Illuminated
Mar 27
Waning Crescent
Mar 30
New
Apr 7
First Quarter
Apr 15
Full
Apr 22
Last Quarter

Hourly Weather History & Observations

Time (CDT) Temp. Windchill Dew Point Humidity Pressure Visibility Wind Dir Wind Speed Gust Speed Precip Events Conditions
12:15 AM 43.7 °F 34.7 °F 39.2 °F 84% 29.56 in 10.0 mi South 23.0 mph 34.5 mph N/A   Overcast
12:35 AM 43.5 °F 34.5 °F 39.2 °F 85% 29.55 in 10.0 mi South 23.0 mph 29.9 mph N/A   Overcast
1:15 AM 43.0 °F 33.5 °F 40.1 °F 90% 29.53 in 4.0 mi South 24.2 mph 27.6 mph N/A   Overcast
1:35 AM 43.0 °F 33.5 °F 40.3 °F 90% 29.51 in 7.0 mi SSE 24.2 mph 33.4 mph N/A   Overcast
1:55 AM 43.5 °F 34.5 °F 40.3 °F 88% 29.51 in 10.0 mi South 23.0 mph 35.7 mph N/A   Overcast
2:15 AM 43.7 °F 35.0 °F 40.1 °F 87% 29.49 in 10.0 mi SSE 21.9 mph 28.8 mph N/A   Overcast
2:35 AM 43.7 °F 34.7 °F 40.3 °F 88% 29.48 in 7.0 mi South 23.0 mph 29.9 mph N/A   Overcast
2:55 AM 43.2 °F 34.2 °F 40.5 °F 90% 29.48 in 5.0 mi SSE 21.9 mph 29.9 mph N/A   Overcast
3:15 AM 43.2 °F 34.7 °F 40.8 °F 91% 29.47 in 3.0 mi SSE 19.6 mph 27.6 mph N/A   Overcast
3:35 AM 43.2 °F 34.7 °F 41.0 °F 92% 29.47 in 3.0 mi South 19.6 mph 25.3 mph N/A   Light Drizzle
3:55 AM 43.2 °F 35.0 °F 41.2 °F 93% 29.45 in 3.0 mi South 18.4 mph 24.2 mph N/A   Overcast
4:15 AM 43.3 °F 35.5 °F 41.4 °F 93% 29.45 in 3.0 mi South 17.3 mph 24.2 mph N/A   Overcast
4:35 AM 43.7 °F 36.3 °F 41.5 °F 92% 29.45 in 3.0 mi South 16.1 mph - N/A   Overcast
4:55 AM 43.7 °F 36.6 °F 41.9 °F 93% 29.45 in 2.5 mi South 15.0 mph - N/A   Overcast
5:15 AM 43.7 °F 38.1 °F 41.9 °F 93% 29.44 in 2.5 mi SSE 10.4 mph - N/A   Overcast
5:35 AM 43.7 °F 37.7 °F 41.9 °F 93% 29.43 in 2.5 mi SSE 11.5 mph - N/A   Light Drizzle
5:55 AM 43.7 °F 36.9 °F 41.9 °F 93% 29.42 in 2.5 mi SSE 13.8 mph 18.4 mph N/A Rain Light Rain
6:15 AM 43.7 °F 37.3 °F 41.9 °F 93% 29.40 in 3.0 mi SE 12.7 mph 16.1 mph N/A   Overcast
6:35 AM 43.7 °F 36.9 °F 41.9 °F 93% 29.39 in 3.0 mi SE 13.8 mph 18.4 mph N/A   Overcast
6:55 AM 43.7 °F 36.9 °F 42.1 °F 94% 29.39 in 3.0 mi SSE 13.8 mph - N/A   Overcast
7:15 AM 43.9 °F 36.8 °F 42.3 °F 94% 29.39 in 3.0 mi SSE 15.0 mph 20.7 mph N/A Thunderstorm Overcast
7:35 AM 44.1 °F 38.1 °F 42.4 °F 94% 29.39 in 2.5 mi SSE 11.5 mph - N/A Thunderstorm Overcast
7:55 AM 44.2 °F 38.0 °F 42.8 °F 95% 29.38 in 1.5 mi SE 12.7 mph 18.4 mph N/A   Overcast
8:15 AM 44.2 °F 38.8 °F 42.8 °F 95% 29.38 in 1.5 mi SE 10.4 mph 16.1 mph N/A   Overcast
8:35 AM 44.6 °F 38.8 °F 43.0 °F 94% 29.36 in 1.5 mi SE 11.5 mph - N/A Rain Light Rain
8:55 AM 45.0 °F 39.7 °F 43.7 °F 95% 29.35 in 1.5 mi SE 10.4 mph - N/A   Overcast
9:15 AM 45.5 °F 39.9 °F 44.1 °F 95% 29.35 in 2.5 mi SSE 11.5 mph - N/A   Overcast
9:35 AM 46.0 °F 41.0 °F 44.6 °F 95% 29.34 in 3.0 mi SE 10.4 mph - N/A Rain Light Rain
9:55 AM 46.4 °F 43.5 °F 44.8 °F 94% 29.33 in 3.0 mi SSE 5.8 mph - N/A   Light Drizzle
10:15 AM 46.9 °F - 45.5 °F 95% 29.32 in 4.0 mi SE 10.4 mph - N/A   Overcast
10:35 AM 47.7 °F - 45.9 °F 93% 29.32 in 4.0 mi SE 9.2 mph - N/A   Overcast
10:55 AM 48.4 °F - 46.6 °F 93% 29.32 in 3.0 mi SSE 8.1 mph - N/A   Light Drizzle
11:15 AM 49.1 °F - 47.3 °F 93% 29.31 in 4.0 mi SSE 10.4 mph - N/A   Overcast
11:35 AM 49.5 °F - 47.5 °F 93% 29.31 in 3.0 mi SSE 10.4 mph - N/A   Drizzle
11:55 AM 50.0 °F - 47.8 °F 92% 29.30 in 3.0 mi SSE 10.4 mph - N/A   Light Drizzle
12:15 PM 50.7 °F - 48.7 °F 93% 29.30 in 4.0 mi SSE 10.4 mph - N/A   Overcast
12:35 PM 51.4 °F - 49.5 °F 93% 29.30 in 4.0 mi SSE 9.2 mph - N/A   Overcast
12:55 PM 50.4 °F - 48.2 °F 92% 29.31 in 4.0 mi NW 15.0 mph - N/A   Overcast
1:15 PM 45.9 °F 38.5 °F 43.7 °F 92% 29.31 in 5.0 mi NW 18.4 mph 25.3 mph N/A Rain Light Rain
1:35 PM 41.0 °F 33.5 °F 38.5 °F 91% 29.33 in 7.0 mi NW 13.8 mph 32.2 mph N/A   Overcast
1:55 PM 39.7 °F 29.7 °F 37.6 °F 92% 29.34 in 7.0 mi NW 21.9 mph 28.8 mph N/A Thunderstorm Overcast
2:15 PM 39.2 °F 29.6 °F 36.5 °F 90% 29.35 in 5.0 mi NW 19.6 mph 28.8 mph N/A   Overcast
2:35 PM 38.3 °F 28.7 °F 35.8 °F 91% 29.36 in 5.0 mi WNW 18.4 mph 25.3 mph N/A   Overcast
2:55 PM 37.8 °F 28.3 °F 35.4 °F 91% 29.37 in 4.0 mi WNW 17.3 mph 27.6 mph N/A   Light Drizzle
3:15 PM 37.0 °F 27.7 °F 34.7 °F 91% 29.39 in 3.0 mi WNW 16.1 mph 29.9 mph N/A   Drizzle
3:35 PM 37.2 °F 27.9 °F 34.9 °F 91% 29.39 in 1.8 mi WNW 16.1 mph 26.5 mph 0.03 in Rain Rain
3:55 PM 37.4 °F 27.8 °F 34.9 °F 91% 29.41 in 2.5 mi WNW 17.3 mph 27.6 mph 0.06 in Rain Rain
4:15 PM 36.3 °F 26.1 °F 33.8 °F 91% 29.43 in 4.0 mi WNW 18.4 mph 29.9 mph 0.01 in Rain Light Rain
4:35 PM 35.2 °F 25.0 °F 32.5 °F 90% 29.45 in 5.0 mi WNW 17.3 mph 28.8 mph 0.01 in Rain Light Rain
4:55 PM 34.7 °F 23.7 °F 32.2 °F 91% 29.46 in 7.0 mi WNW 19.6 mph 31.1 mph 0.02 in Rain Rain
5:15 PM 34.2 °F 22.6 °F 31.8 °F 91% 29.48 in 10.0 mi WNW 20.7 mph 34.5 mph N/A   Overcast
5:35 PM 33.8 °F 21.3 °F 31.1 °F 90% 29.50 in 10.0 mi WNW 24.2 mph 32.2 mph N/A   Overcast
5:55 PM 33.3 °F 21.2 °F 30.9 °F 91% 29.53 in 3.0 mi WNW 21.9 mph 32.2 mph N/A   Overcast
6:15 PM 33.3 °F 22.5 °F 30.7 °F 90% 29.56 in 4.0 mi WNW 17.3 mph 26.5 mph N/A   Overcast
6:35 PM 33.1 °F 21.9 °F 30.4 °F 90% 29.58 in 4.0 mi WNW 18.4 mph 31.1 mph N/A   Overcast
7:15 PM 33.1 °F 21.2 °F 30.2 °F 89% 29.62 in 7.0 mi NW 20.7 mph 29.9 mph N/A   Overcast
7:55 PM 33.4 °F 23.1 °F 30.2 °F 88% 29.67 in 5.0 mi NW 16.1 mph 31.1 mph N/A Snow Light Snow
8:15 PM 33.8 °F 21.6 °F 30.2 °F 87% 29.69 in 10.0 mi NW 23.0 mph 26.5 mph N/A   Overcast
8:35 PM 34.0 °F 22.4 °F 30.2 °F 86% 29.71 in 10.0 mi NW 20.7 mph 26.5 mph N/A   Overcast
8:55 PM 34.2 °F 23.3 °F 30.0 °F 85% 29.73 in 10.0 mi NW 18.4 mph 26.5 mph N/A   Overcast
9:15 PM 34.2 °F 22.1 °F 29.8 °F 84% 29.74 in 10.0 mi NNW 23.0 mph 34.5 mph N/A   Overcast
9:35 PM 34.2 °F 23.3 °F 30.0 °F 85% 29.76 in 10.0 mi NW 18.4 mph 27.6 mph N/A   Overcast
9:55 PM 34.3 °F 24.6 °F 30.2 °F 85% 29.77 in 10.0 mi NW 15.0 mph 20.7 mph N/A   Overcast
10:15 PM 34.3 °F 23.9 °F 30.2 °F 85% 29.77 in 10.0 mi NW 17.3 mph 23.0 mph N/A   Overcast
10:35 PM 34.3 °F 24.6 °F 30.0 °F 84% 29.78 in 10.0 mi NW 15.0 mph 20.7 mph N/A   Overcast
10:55 PM 34.2 °F 23.6 °F 30.0 °F 85% 29.79 in 10.0 mi NW 17.3 mph 20.7 mph N/A   Overcast
11:15 PM 34.2 °F 24.8 °F 29.8 °F 84% 29.81 in 10.0 mi NW 13.8 mph 20.7 mph N/A   Overcast
11:35 PM 34.2 °F 24.8 °F 29.8 °F 84% 29.81 in 10.0 mi NW 13.8 mph 19.6 mph N/A   Overcast
11:55 PM 34.0 °F 23.0 °F 29.3 °F 83% 29.82 in 10.0 mi NNW 18.4 mph - N/A   Overcast